Location: Unspecified
(0.0000°N, 0.0000°E)
Time: 20:11:53
(UTC+00:00)

Jawsat - Visible Passes

Search period start: 15 May 2026 00:00
Search period end: 25 May 2026 00:00
Orbit: 720 x 764 km, 100.2° (Epoch: 15 May)

Date Brightness Start Highest point End Pass type
(mag) Time Alt. Az. Time Alt. Az. Time Alt. Az.
16 May 8.5 04:52:57 10° NE 04:57:42 42° ESE 05:02:24 10° S visible
17 May 10.2 04:12:38 10° E 04:14:19 12° ESE 04:16:00 10° SE visible
17 May 9.9 18:16:22 10° SSW 18:19:35 18° WSW 18:22:51 10° WNW visible
18 May 8.0 05:04:01 10° NNE 05:08:56 55° ESE 05:13:50 10° S visible
19 May 10.0 04:22:38 10° ENE 04:25:34 16° ESE 04:28:28 10° SE visible
19 May 10.1 18:28:30 10° SW 18:30:50 13° WSW 18:33:10 10° WNW visible
20 May 7.5 05:15:11 10° NNE 05:20:12 74° ESE 05:25:11 10° S visible
21 May 9.7 04:33:09 10° ENE 04:36:48 20° ESE 04:40:27 10° SSE visible
22 May 7.3 05:26:25 10° NNE 05:31:27 85° WNW 05:36:27 10° SSW visible
23 May 9.3 04:43:52 10° NE 04:48:03 27° ESE 04:52:11 10° SSE visible
